STARLINK-1019 (44724 NORAD) Tracking and Keplerian Element Data

This shows tracking and keplerian element data for the satellite.

Feedback or suggestion? Click here.




ElementValue
Catalog44724
NameSTARLINK-1019
Epoch Orbit1066
Epoch Day18.25002315
Epoch Year2020
RAAN194.1904
Inclination53.0072
Eccentricity0.0007759
Argument of Perigee70.2872
Mean Anonmoly325.752
Mean Motion15.73159108
Decay Rate0.00317302
L11 44724U 19074M 20018.25002315 .00317302 00000-0 21818-2 0 9999
L22 44724 53.0072 194.1904 0007759 70.2872 325.7520 15.73159108 10669

Live tracking and technical data element details for STARLINK-1019 (NORAD 44724). STARLINK-1019 can be tracked NOW for your location showing map with azimuth and elevation plus other details from your city location.

Track the satellite on the map from your city or location and see movement details for azimuth, elevation, latitude, longitude, range, height, and movement on the map or in text.







IsCatalogInMostPopularTable: catalog: 44724, numindb: 9
Update: records affected: 1



GetName: 44724 STARLINK-1019

Hit Count: updated at: Sat, 18 Jan 2020 17:25:05 GMT